Malmstrom AFB, MT

2:57 PM MDT on October 22, 2017 (GMT -0600)
Malmstrom AFB

Weather History for KGFA - April, 2014

Change the Weather History Date:

Tuesday, April 15, 2014

  Actual Average (KGTF) Record (KGTF)
Temperature  
Mean Temperature 46 °F -  
Max Temperature 52 °F 56 °F 82 °F (1926)
Min Temperature 37 °F 32 °F 15 °F (1896)
Degree Days  
Heating Degree Days 20    
Moisture  
Dew Point 26 °F    
Average Humidity 50    
Maximum Humidity 83    
Minimum Humidity 23    
Precipitation  
Precipitation 0.01 in - - ()
Sea Level Pressure  
Sea Level Pressure 29.81 in    
Wind  
Wind Speed 14 mph (WSW)    
Max Wind Speed 20 mph    
Max Gust Speed 33 mph    
Visibility 10 miles    
Events Rain    
Averages and records for this station are not official NWS values.
T = Trace of Precipitation, MM = Missing Value Source: NWS Daily Summary

Daily Weather History Graph

Daily Weather History Graph

Search for Another Location

Airport or City:

Trip Planner

Search our weather history database for the weather conditions in past years. The results will help you decide how hot, cold, wet, or windy it might be!

Date:

Astronomy

Apr. 15, 2014 Rise Set
Actual Time 6:35 AM MDT 8:14 PM MDT
Civil Twilight 6:03 AM MDT 8:46 PM MDT
Nautical Twilight 5:24 AM MDT 9:26 PM MDT
Astronomical Twilight 4:41 AM MDT 10:09 PM MDT
Moon 9:02 PM MDT (4/15) 6:45 AM MDT (4/15)
Length of Visible Light 14h 43m
Length of Day
13h 38m
Full, 100% of the Moon is Illuminated
Apr 15
Full
Apr 22
Last Quarter
Apr 29
New
May 6
First Quarter
May 14
Full

Hourly Weather History & Observations

Time (MDT) Temp. Windchill Dew Point Humidity Pressure Visibility Wind Dir Wind Speed Gust Speed Precip Events Conditions
12:56 AM 50.0 °F - 12.9 °F 23% 29.85 in 10.0 mi SW 17.3 mph - N/A   Clear
1:56 AM 50.0 °F - 14.0 °F 24% 29.82 in 10.0 mi SSW 18.4 mph - N/A   Mostly Cloudy
2:56 AM 50.0 °F - 16.0 °F 26% 29.79 in 10.0 mi SSW 18.4 mph - N/A   Mostly Cloudy
3:56 AM 50.0 °F - 18.0 °F 28% 29.78 in 10.0 mi SSW 15.0 mph - N/A   Clear
4:56 AM 48.0 °F - 19.9 °F 33% 29.77 in 10.0 mi SSW 15.0 mph - N/A   Clear
5:56 AM 48.0 °F - 19.0 °F 32% 29.77 in 10.0 mi SSW 10.4 mph - N/A   Clear
6:56 AM 48.9 °F - 19.0 °F 31% 29.76 in 10.0 mi West 8.1 mph - N/A   Clear
7:56 AM 50.0 °F - 21.0 °F 32% 29.76 in 10.0 mi WSW 9.2 mph - N/A   Clear
8:56 AM 51.1 °F - 21.9 °F 32% 29.76 in 10.0 mi SW 15.0 mph - N/A   Clear
9:56 AM 51.1 °F - 23.0 °F 33% 29.76 in 10.0 mi WSW 9.2 mph - N/A   Overcast
10:56 AM 52.0 °F - 21.9 °F 31% 29.77 in 10.0 mi WSW 16.1 mph 25.3 mph N/A   Overcast
11:56 AM 52.0 °F - 24.1 °F 34% 29.76 in 10.0 mi SW 16.1 mph 24.2 mph N/A   Overcast
12:56 PM 46.9 °F - 32.0 °F 56% 29.77 in 10.0 mi SW 18.4 mph 23.0 mph 0.00 in Rain Light Rain
1:56 PM 48.0 °F - 32.0 °F 54% 29.77 in 10.0 mi North 4.6 mph - 0.00 in   Overcast
2:56 PM 42.1 °F 34.2 °F 36.0 °F 79% 29.79 in 10.0 mi SSW 16.1 mph - 0.00 in   Overcast
3:56 PM 46.0 °F 39.9 °F 36.0 °F 68% 29.77 in 10.0 mi SSW 13.8 mph - 0.00 in   Mostly Cloudy
4:48 PM 44.6 °F 36.6 °F 32.0 °F 61% 29.70 in 7.0 mi West 19.6 mph 33.4 mph 0.00 in Rain Light Rain
4:56 PM 46.0 °F 39.9 °F 30.0 °F 54% 29.80 in 9.0 mi WSW 13.8 mph - 0.00 in Rain Light Rain
6:56 PM 42.1 °F 36.1 °F 32.0 °F 67% 29.86 in 10.0 mi West 10.4 mph 20.7 mph 0.00 in Rain Light Rain
7:56 PM 42.1 °F 36.1 °F 33.1 °F 70% 29.87 in 10.0 mi West 10.4 mph - 0.00 in   Overcast
8:56 PM 41.0 °F 34.7 °F 32.0 °F 70% 29.90 in 10.0 mi West 10.4 mph - N/A   Overcast
9:56 PM 41.0 °F 34.3 °F 30.9 °F 67% 29.93 in 10.0 mi West 11.5 mph - N/A   Overcast
10:56 PM 39.0 °F 34.0 °F 33.1 °F 79% 29.94 in 10.0 mi West 6.9 mph - 0.01 in Rain Light Rain
11:05 PM 39.2 °F 35.9 °F 33.8 °F 81% 29.83 in 10.0 mi WNW 4.6 mph - 0.00 in Rain Light Rain
11:56 PM 37.9 °F 32.7 °F 33.1 °F 83% 29.96 in 10.0 mi West 6.9 mph - 0.00 in Rain Light Rain